STARLINK-1681 (46559 NORAD) Tracking and Keplerian Element Data

This shows tracking and keplerian element data for the satellite.

Feedback or suggestion? Click here.




ElementValue
Catalog46559
NameSTARLINK-1681
Epoch Orbit956
Epoch Day336.25001157
Epoch Year2020
RAAN168.4972
Inclination52.9976
Eccentricity0.0001851
Argument of Perigee26.7719
Mean Anonmoly219.7879
Mean Motion15.62740277
Decay Rate-2.71E-05
L11 46559U 20070AD 20336.25001157 -.00002710 00000-0 -23776-4 0 9994
L22 46559 52.9976 168.4972 0001851 26.7719 219.7879 15.62740277 9567

Live tracking and technical data element details for STARLINK-1681 (NORAD 46559). STARLINK-1681 can be tracked NOW for your location showing map with azimuth and elevation plus other details from your city location.

Track the satellite on the map from your city or location and see movement details for azimuth, elevation, latitude, longitude, range, height, and movement on the map or in text.







IsCatalogInMostPopularTable: catalog: 46559, numindb: 15
Update: records affected: 1



GetName: 46559 STARLINK-1681

Hit Count: updated at: Tue, 01 Dec 2020 20:48:20 GMT